sat.trackr.live / text

‹ back to catalog

STARLINK-36053

NORAD 66875 · 2025-281AD

PAYLOAD ACTIVE UNKNOWN

§ Identity

Operator
Country
US
Launch date
2025-12-02
Launch site
AFETR
Launch vehicle
Mass (kg)
RCS (m²)

Purposes: comms

External: N2YO · Heavens-Above · Gunter

§ Orbital elements

Epoch: 2026-09-20T15:36:36.041760Z

Period
94.27 min
Inclination
42.9994°
Eccentricity
0.0000690
Mean motion
15.27590205 rev/d
Perigee alt
482.5 km
Apogee alt
483.5 km
Semi-major
6,861.2 km
B*
4.4480e-4
RAAN
322.3065°
Arg perigee
270.5657°
Mean anomaly
89.5115°
Rev number
4,594

§ Raw data

STARLINK-360531 66875U 25281AD  26263.65041715  .00012002  00000+0  44480-3 0  99952 66875  42.9994 322.3065 0000690 270.5657  89.5115 15.27590205 45946

JSON: /api/v1/satellites/66875 · /tle

For live sub-satellite position, see the globe view (requires WebGL).

§ Visibility from observer

Set your observer location to see the next 7 days of passes ≥ 10°. The values pass through the URL so the page stays shareable.

No JS? Fill the form by hand. The geolocation button needs JavaScript.